Regional Weather Roundup
Issued by NWS

Home | Current Version | Previous Version | Text Only | Print | Product List | Glossary Off
Versions: 1 2 3 4 5 6 7 8 9 10 11 12 13 14 15 16 17 18 19 20 21 22 23 24 25 26 27 28 29 30 31 32 33 34 35 36 37 38 39 40 41 42 43 44 45 46 47 48 49 50

181
ASUS44 KJAN 200103
RWRMS

MISSISSIPPI HOURLY WEATHER ROUNDUP
NATIONAL WEATHER SERVICE JACKSON MS
800 PM CDT TUE AUG 19 2014

NOTE: "FAIR: INDICATES FEW OR NO CLOUDS BELOW 12,000 FEET WITH NO
SIGNIFICANT WEATHER AND/OR OBSTRUCTIONS TO VISIBILITY.

MSZ001>002-007>008-010>013-018>021-025>028-034>036-200200-
NORTHWEST MISSISSIPPI

CITY           SKY/WX    TMP DP  RH WIND       PRES   REMARKS
CLARKSDALE     FAIR      84  81  89 CALM      29.89R HX  98
CLEVELAND      FAIR      84  79  84 SW6       29.89R HX  97
GREENWOOD      MOCLDY    80  75  84 S7        29.90R
GREENVILLE       N/A    N/A N/A N/A MISG      29.89
GRENADA        FAIR      84  73  70 CALM      29.90R HX  91
OLIVE BRANCH   PTCLDY    82  81  94 S5        29.89R HX  95
OXFORD         FAIR      82  75  78 SW5       29.91R
TUNICA         CLEAR     82  77  83 S5        29.88R HX  91
$$

MSZ003>006-009-014>017-022>024-029>033-037>039-200200-
NORTHEAST MISSISSIPPI

CITY           SKY/WX    TMP DP  RH WIND       PRES   REMARKS
BELMONT        FAIR      82  74  78 S5        29.90R
COLUMBUS AFB   MOCLDY    84  73  68 S8        29.91R HX  90
CORINTH        FAIR      81  73  78 CALM      29.89R
GOLDN TRIANGLE PTCLDY    82  70  65 MISG      29.92R
STARKVILLE     FAIR      82  73  74 CALM      29.91R
TUPELO         CLEAR     85  72  65 SW5       29.89R HX  91
$$

MSZ040-058-200200-
CENTRAL MISSISSIPPI

CITY           SKY/WX    TMP DP  RH WIND       PRES   REMARKS
JACKSON INTL   PTCLDY    83  73  72 SW5       29.93F
JACKSON HAWKNS PTCLDY    85  74  69 SW5       29.94S HX  92
MERIDIAN KEY   MOCLDY    75  67  76 W3        29.95R
MERIDIAN NAS   CLOUDY    76  69  79 W6        29.93F
RAYMOND        FAIR      84  77  79 CALM      29.93F HAZE    HX  94
VICKSBURG      PTCLDY    83  76  79 S5        29.91F HX  91
$$

MSZ059>079-200200-
SOUTH MISSISSIPPI

CITY           SKY/WX    TMP DP  RH WIND       PRES   REMARKS
BROOKHAVEN     FAIR      81  75  83 CALM      29.97S
COLUMBIA       FAIR      82  77  83 MISG      29.94R HX  91
HATTIESBURG    PTCLDY    88  73  61 W5        29.94R HX  95
MCCOMB         MOCLDY    83  73  72 S5        29.96R
NATCHEZ        CLOUDY    79  70  73 S5        29.96R
PINE BELT      MOCLDY    82  72  69 W7        29.99R THUNDER
$$

MSZ080>082-200200-
COASTAL MISSISSIPPI

CITY           SKY/WX    TMP DP  RH WIND       PRES   REMARKS
BAY ST LOUIS   PTCLDY   N/A N/A N/A CALM      29.94S
BILOXI         CLEAR     85  75  70 SW9       29.94R HX  93
PASCAGOULA     CLEAR     84  75  74 VRB5      29.93F HX  92
GULFPORT       PTCLDY    85  73  67 W5        29.93R HX  91
$$



USA.gov is the U.S. government's official web portal to all federal, state and local government web resources and services.